Weather History for Weslaco, TX

Change the Weather History Date:

Friday, January 10, 2014

  Actual Average (KMFE) Record (KMFE)
Temperature  
Mean Temperature 72 °F 60 °F  
Max Temperature 81 °F 70 °F 92 °F (1963)
Min Temperature 63 °F 50 °F 24 °F (1899)
Degree Days  
Heating Degree Days 0 7  
Month to date heating degree days 70  
Since 1 July heating degree days 307  
Cooling Degree Days 7 2  
Month to date cooling degree days 20  
Year to date cooling degree days 20  
Growing Degree Days 22 (Base 50)    
Moisture  
Dew Point 62 °F    
Average Humidity 77    
Maximum Humidity 91    
Minimum Humidity 55    
Precipitation  
Precipitation 0.00 in 0.03 in 0.88 in (1992)
Month to date precipitation 0.32  
Year to date precipitation 0.32  
Sea Level Pressure  
Sea Level Pressure 29.89 in    
Wind  
Wind Speed 11 mph (South)    
Max Wind Speed 24 mph    
Max Gust Speed 34 mph    
Visibility 8 miles    
Events      
T = Trace of Precipitation, MM = Missing Value Source: NWS Daily Summary

Daily Weather History Graph

Daily Weather History Graph

Search for Another Location

Airport:

Trip Planner

Search our weather history database for the weather conditions in past years. The results will help you decide how hot, cold, wet, or windy it might be!

Date:

Astronomy

Jan. 10, 2014 Rise Set
Actual Time 7:20 AM CST 5:58 PM CST
Civil Twilight 6:55 AM CST 6:23 PM CST
Nautical Twilight 6:27 AM CST 6:51 PM CST
Astronomical Twilight 5:59 AM CST 7:19 PM CST
Moon 1:55 PM CST (1/10) 2:38 AM CST (1/10)
Length of Visible Light 11h 27m
Length of Day
10h 37m
Waxing Gibbous, 75% of the Moon is Illuminated
Jan 10
Waxing Gibbous
Jan 15
Full
Jan 23
Last Quarter
Jan 30
New
Feb 6
First Quarter

Hourly Weather History & Observations

Time (CST) Temp. Heat Index Dew Point Humidity Pressure Visibility Wind Dir Wind Speed Gust Speed Precip Events Conditions
12:15 AM 64.6 °F - 61.7 °F 90% 30.00 in 7.0 mi SSE 6.9 mph - N/A   Overcast
12:35 AM 64.4 °F - 61.5 °F 90% 29.99 in 7.0 mi SSE 5.8 mph - N/A   Overcast
12:55 AM 63.7 °F - 61.0 °F 91% 29.98 in 7.0 mi SSE 6.9 mph - N/A   Scattered Clouds
1:15 AM 63.7 °F - 61.0 °F 91% 29.98 in 7.0 mi SSE 6.9 mph - N/A   Scattered Clouds
1:35 AM 63.9 °F - 61.2 °F 91% 29.98 in 7.0 mi SSE 6.9 mph - N/A   Mostly Cloudy
1:55 AM 64.0 °F - 61.3 °F 91% 29.96 in 7.0 mi SSE 6.9 mph - N/A   Overcast
2:15 AM 64.4 °F - 61.7 °F 91% 29.96 in 7.0 mi SSE 8.1 mph - N/A   Overcast
2:35 AM 64.4 °F - 61.3 °F 90% 29.95 in 7.0 mi SSE 10.4 mph - N/A   Overcast
2:55 AM 64.4 °F - 61.2 °F 89% 29.94 in 7.0 mi SSE 10.4 mph 17.3 mph N/A   Scattered Clouds
3:15 AM 64.4 °F - 61.2 °F 89% 29.93 in 7.0 mi SSE 9.2 mph - N/A   Overcast
3:35 AM 64.4 °F - 61.0 °F 89% 29.93 in 10.0 mi SSE 10.4 mph 17.3 mph N/A   Overcast
3:55 AM 64.8 °F - 61.0 °F 88% 29.92 in 10.0 mi SSE 11.5 mph - N/A   Overcast
4:15 AM 65.3 °F - 61.2 °F 86% 29.92 in 10.0 mi SSE 11.5 mph 16.1 mph N/A   Overcast
4:35 AM 65.5 °F - 61.7 °F 88% 29.91 in 10.0 mi SSE 12.7 mph 17.3 mph N/A   Overcast
4:55 AM 65.7 °F - 61.7 °F 87% 29.92 in 10.0 mi South 12.7 mph - N/A   Overcast
5:15 AM 65.7 °F - 61.3 °F 86% 29.91 in 10.0 mi SSE 13.8 mph 17.3 mph N/A   Overcast
5:35 AM 65.7 °F - 61.3 °F 86% 29.91 in 10.0 mi SSE 12.7 mph 17.3 mph N/A   Overcast
5:55 AM 65.8 °F - 61.0 °F 84% 29.91 in 10.0 mi SSE 15.0 mph 21.9 mph N/A   Overcast
6:15 AM 66.2 °F - 61.3 °F 84% 29.91 in 10.0 mi SSE 13.8 mph 18.4 mph N/A   Overcast
6:35 AM 66.2 °F - 61.5 °F 85% 29.90 in 10.0 mi SSE 9.2 mph 16.1 mph N/A   Overcast
6:55 AM 66.2 °F - 61.7 °F 85% 29.90 in 10.0 mi SSE 11.5 mph - N/A   Overcast
7:15 AM 65.8 °F - 61.7 °F 86% 29.89 in 10.0 mi SSE 12.7 mph 16.1 mph N/A   Overcast
7:35 AM 65.5 °F - 61.2 °F 86% 29.89 in 10.0 mi SSE 11.5 mph 17.3 mph N/A   Overcast
7:55 AM 65.7 °F - 60.8 °F 84% 29.89 in 10.0 mi SSE 16.1 mph 20.7 mph N/A   Scattered Clouds
8:15 AM 66.4 °F - 60.8 °F 82% 29.89 in 10.0 mi SSE 16.1 mph 23.0 mph N/A   Clear
8:35 AM 67.5 °F - 61.3 °F 81% 29.90 in 10.0 mi SSE 15.0 mph 24.2 mph N/A   Clear
8:55 AM 68.9 °F - 61.9 °F 78% 29.91 in 7.0 mi South 16.1 mph 24.2 mph N/A   Clear
9:15 AM 70.0 °F - 62.1 °F 76% 29.91 in 7.0 mi South 19.6 mph 28.8 mph N/A   Clear
9:35 AM 71.1 °F - 62.6 °F 75% 29.91 in 7.0 mi SSE 18.4 mph 26.5 mph N/A   Clear
9:55 AM 72.1 °F - 62.6 °F 72% 29.90 in 7.0 mi South 20.7 mph 32.2 mph N/A   Clear
10:15 AM 72.9 °F - 62.4 °F 70% 29.91 in 7.0 mi South 21.9 mph 33.4 mph N/A   Clear
10:35 AM 73.9 °F - 62.2 °F 67% 29.92 in 7.0 mi South 23.0 mph 31.1 mph N/A   Mostly Cloudy
10:55 AM 75.7 °F - 63.0 °F 64% 29.92 in 10.0 mi South 24.2 mph 28.8 mph N/A   Mostly Cloudy
11:15 AM 75.0 °F - 62.8 °F 66% 29.91 in 7.0 mi South 19.6 mph 28.8 mph N/A   Overcast
11:35 AM 77.4 °F - 63.0 °F 61% 29.90 in 7.0 mi South 21.9 mph 34.5 mph N/A   Mostly Cloudy
11:55 AM 77.0 °F - 62.6 °F 61% 29.88 in 10.0 mi South 18.4 mph 33.4 mph N/A   Overcast
12:15 PM 78.1 °F - 63.1 °F 60% 29.87 in 10.0 mi South 21.9 mph 32.2 mph N/A   Overcast
12:35 PM 77.7 °F - 62.8 °F 60% 29.86 in 7.0 mi SSW 21.9 mph 29.9 mph N/A   Mostly Cloudy
12:55 PM 78.6 °F - 62.8 °F 58% 29.86 in 7.0 mi SSW 23.0 mph 31.1 mph N/A   Scattered Clouds
1:15 PM 77.2 °F - 63.3 °F 62% 29.84 in 7.0 mi South 19.6 mph 28.8 mph N/A   Mostly Cloudy
1:35 PM 79.0 °F - 63.1 °F 58% 29.83 in 7.0 mi South 20.7 mph 26.5 mph N/A   Mostly Cloudy
1:55 PM 78.4 °F - 63.0 °F 59% 29.82 in 7.0 mi South 19.6 mph 24.2 mph N/A   Mostly Cloudy
2:15 PM 79.5 °F - 62.8 °F 56% 29.81 in 7.0 mi South 13.8 mph 23.0 mph N/A   Scattered Clouds
2:35 PM 80.4 °F 81.7 °F 63.1 °F 55% 29.81 in 10.0 mi South 15.0 mph 21.9 mph N/A   Scattered Clouds
2:55 PM 80.1 °F 81.5 °F 63.3 °F 56% 29.81 in 10.0 mi SSW 11.5 mph 19.6 mph N/A   Clear
3:15 PM 80.8 °F 82.2 °F 63.5 °F 56% 29.81 in 7.0 mi South 13.8 mph 23.0 mph N/A   Scattered Clouds
3:35 PM 81.0 °F 82.5 °F 63.7 °F 56% 29.81 in 7.0 mi SSW 11.5 mph 19.6 mph N/A   Scattered Clouds
3:55 PM 80.8 °F 82.2 °F 63.5 °F 56% 29.81 in 7.0 mi South 13.8 mph 19.6 mph N/A   Scattered Clouds
4:15 PM 80.8 °F 82.4 °F 64.4 °F 57% 29.81 in 10.0 mi SSE 11.5 mph - N/A   Scattered Clouds
4:35 PM 79.0 °F - 64.9 °F 62% 29.82 in 7.0 mi SSE 11.5 mph - N/A   Scattered Clouds
4:55 PM 78.3 °F - 64.6 °F 63% 29.82 in 7.0 mi SSE 10.4 mph - N/A   Clear
5:15 PM 77.5 °F - 64.4 °F 64% 29.83 in 7.0 mi South 9.2 mph - N/A   Clear
5:35 PM 76.5 °F - 64.4 °F 66% 29.83 in 7.0 mi SSE 9.2 mph 16.1 mph N/A   Clear
5:55 PM 74.8 °F - 64.6 °F 70% 29.83 in 7.0 mi SSE 10.4 mph - N/A   Clear
6:15 PM 72.5 °F - 64.0 °F 75% 29.84 in 10.0 mi SSE 8.1 mph - N/A   Clear
6:35 PM 71.6 °F - 63.9 °F 76% 29.85 in 10.0 mi SSE 6.9 mph - N/A   Clear
6:55 PM 70.0 °F - 63.5 °F 80% 29.86 in 7.0 mi SSE 5.8 mph - N/A   Clear
7:15 PM 68.9 °F - 63.3 °F 82% 29.86 in 7.0 mi South 4.6 mph - N/A   Clear
7:35 PM 68.0 °F - 63.1 °F 84% 29.88 in 7.0 mi South 4.6 mph - N/A   Clear
7:55 PM 67.5 °F - 62.6 °F 84% 29.88 in 7.0 mi SSE 3.5 mph - N/A   Clear
8:15 PM 67.1 °F - 62.6 °F 85% 29.89 in 7.0 mi South 5.8 mph - N/A   Clear
8:35 PM 66.4 °F - 61.9 °F 85% 29.89 in 7.0 mi South 4.6 mph - N/A   Clear
8:55 PM 66.0 °F - 61.9 °F 86% 29.90 in 7.0 mi South 5.8 mph - N/A   Clear
9:15 PM 65.5 °F - 61.9 °F 88% 29.91 in 7.0 mi South 5.8 mph - N/A   Clear
9:35 PM 65.5 °F - 62.1 °F 89% 29.91 in 7.0 mi South 5.8 mph - N/A   Clear
9:55 PM 65.7 °F - 62.2 °F 89% 29.92 in 7.0 mi South 6.9 mph - N/A   Clear
10:15 PM 64.9 °F - 61.7 °F 89% 29.92 in 5.0 mi South 5.8 mph - N/A   Clear
10:35 PM 64.9 °F - 61.9 °F 90% 29.91 in 5.0 mi SSW 5.8 mph - N/A   Clear
10:55 PM 64.4 °F - 61.3 °F 90% 29.92 in 5.0 mi SSW 4.6 mph - N/A   Clear
11:15 PM 63.5 °F - 60.8 °F 91% 29.91 in 5.0 mi South 5.8 mph - N/A   Clear
11:35 PM 63.5 °F - 61.0 °F 91% 29.91 in 4.0 mi SSW 4.6 mph - N/A   Clear
11:55 PM 63.0 °F - 60.4 °F 91% 29.92 in 4.0 mi Calm Calm - N/A   Clear